Location: Newark
(13.6797°N, 8.5297°E)
Time: 21:04:59
(UTC+00:00)

SR - Pass Details

Date: 01 February 2020
Orbit: 575 x 880 km, 66.7° (Epoch: 23 February)

Event Time Altitude Azimuth Distance (km) Brightness Sun altitude
Rises 19:47:31 0° 236° (SW) 3,312 ? -34.2°
Reaches altitude 10° 19:50:39 10° 254° (WSW) 2,430 ? -34.9°
Maximum altitude 19:54:27 18° 296° (WNW) 1,951 ? -35.8°
Enters shadow 19:56:48 15° 325° (NW) 2,179 ? -36.4°
Drops below altitude 10° 19:58:22 10° 339° (NNW) 2,512 - -36.8°
Sets 20:01:42 0° 357° (N) 3,465 - -37.6°
